All Stations Radar Satellite Rainfall Station Map Enhanced Site
Observations: Wind Gusts Humidity Temperature    
Forecasts: Wind Gusts Humidity Temperature    

Valley Center (907, 908, 909, 1030, 6926) Station Data (Station Map)

Red Flag Warning: No
Fire Weather Zone: 250
SDGE Region: North East
Lat/Lon: 33.236/-117.001

Observations

Time (PDT)Wind Spd/GustTempRHFuel Moisture
10/31 12:40pmESE 2 G 665°60%-
10/31 12:30pmSSE 2 G 665°60%-
10/31 12:20pmSSE 3 G 765°61%-
10/31 12:10pmSE 4 G 865°61%-
10/31 12:00pmSSE 2 G 665°61%-
10/31 11:50amS 3 G 865°62%-
10/31 11:40amSSE 1 G 365°63%-
10/31 11:30amSSE 2 G 564°64%-
10/31 11:20amSSE 2 G 464°64%-
10/31 11:10amSSW 1 G 364°66%-
10/31 11:00amSSW 1 G 664°67%-
10/31 10:50amSSW 1 G 464°67%-
10/31 10:40amSW 1 G 464°67%-
10/31 10:30amSW 1 G 364°67%-
10/31 10:20amSSE 1 G 364°66%-
10/31 10:10amS 1 G 464°65%-
10/31 10:00amS 2 G 663°67%-
10/31 9:50amS 1 G 563°69%-
10/31 9:40amS 2 G 663°72%-
10/31 9:30amSSE 1 G 462°84%-
10/31 9:20amSE 1 G 262°100%-
10/31 9:10amSE 1 G 262°100%-
10/31 9:00amESE 1 G 262°100%-
10/31 8:50amE 1 G 161°100%-
10/31 8:40amE 1 G 261°100%-
10/31 8:30amNNE 1 G 161°100%-
10/31 8:20amENE 1 G 161°100%-
10/31 8:10amENE 1 G 161°100%-
10/31 8:00amNE 1 G 161°100%-
10/31 7:50amNE 1 G 160°100%-
10/31 7:40amNNE 1 G 160°100%-
10/31 7:30amNNE 1 G 160°100%-
10/31 7:20amENE 1 G 260°100%-
10/31 7:10amNNW 1 G 160°100%-
10/31 7:00amE 1 G 160°100%-
10/31 6:50amENE 1 G 160°100%-
10/31 6:40amENE 1 G 160°100%-
10/31 6:30amNE 1 G 160°100%-
10/31 6:20amNNE 1 G 160°100%-
10/31 6:10amNNE 1 G 160°100%-
10/31 6:00amE 1 G 160°100%-
10/31 5:50amESE 1 G 160°100%-
10/31 5:40amESE 1 G 160°100%-
10/31 5:30amE 1 G 160°100%-
10/31 5:20amNE 1 G 260°100%-
10/31 5:10amNNE 1 G 260°100%-
10/31 5:00amNE 1 G 160°100%-
10/31 4:50amNE 1 G 259°100%-
10/31 4:40amENE 1 G 159°100%-
10/31 4:30amENE 1 G 159°100%-
10/31 4:20amE 1 G 359°100%-
10/31 4:10amENE 1 G 259°100%-
10/31 4:00amESE 1 G 259°100%-
10/31 3:50amNE 1 G 158°100%-
10/31 3:40amNE 1 G 258°100%-
10/31 3:30amENE 1 G 257°100%-
10/31 3:20amNNE 1 G 257°100%-
10/31 3:10amNNE 1 G 256°100%-
10/31 3:00amNNE 1 G 256°100%-
10/31 2:50amNNE 1 G 255°100%-
10/31 2:40amNNE 1 G 156°100%-
10/31 2:30amNNE 2 G 357°100%-
10/31 2:20amN 1 G 257°100%-
10/31 2:10amNNE 1 G 257°100%-
10/31 2:00amNNE 2 G 357°100%-
10/31 1:50amNNE 2 G 356°100%-
10/31 1:40amNNE 2 G 255°100%-
10/31 1:30amNNE 1 G 256°100%-
10/31 1:20amENE 1 G 256°100%-
10/31 1:10amS 1 G 157°100%-
10/31 1:00amS 1 G 157°100%-
10/31 12:50amSSE 1 G 257°100%-
10/31 12:40amENE 1 G 257°100%-
10/31 12:30amENE 1 G 157°100%-
10/31 12:20amE 1 G 258°100%-
10/31 12:10amW 1 G 460°100%-
10/31 12:00amNW 2 G 460°100%-
10/30 11:50pmNW 3 G 560°100%-
10/30 11:40pmNW 1 G 359°100%-
10/30 11:30pmNW 2 G 559°100%-
10/30 11:20pmWNW 3 G 659°100%-
10/30 11:10pmWNW 2 G 459°100%-
10/30 11:00pmS 1 G 160°100%-
10/30 10:50pmENE 1 G 260°100%-
10/30 10:40pmESE 1 G 360°100%-
10/30 10:30pmSE 1 G 361°100%-
10/30 10:20pmE 1 G 461°100%-
10/30 10:10pmNE 1 G 461°100%-
10/30 10:00pmENE 2 G 761°100%-
10/30 9:50pmENE 2 G 562°100%-
10/30 9:40pmN 2 G 562°100%-
10/30 9:30pmNNW 3 G 762°100%-
10/30 9:20pmWNW 5 G 962°100%-
10/30 9:10pmW 6 G 1162°100%-
10/30 9:00pmW 4 G 1061°100%-
10/30 8:50pmSSW 1 G 161°100%-
10/30 8:40pmS 1 G 161°100%-
10/30 8:30pmESE 2 G 462°100%-
10/30 8:20pmESE 2 G 562°96%-
10/30 8:10pmE 2 G 462°87%-
10/30 8:00pmNE 1 G 162°81%-
10/30 7:50pmNNW 1 G 263°79%-
10/30 7:40pmWNW 2 G 464°77%-
10/30 7:30pmWNW 3 G 764°76%-
10/30 7:20pmW 4 G 665°75%-
10/30 7:10pmWSW 2 G 565°74%-
10/30 7:00pmSSE 1 G 265°74%-
10/30 6:50pmSSE 1 G 266°74%-
10/30 6:40pmESE 1 G 265°74%-
10/30 6:30pmNNE 1 G 266°74%-
10/30 6:20pmNNE 1 G 466°74%-
10/30 6:10pmNNW 2 G 566°73%-
10/30 6:00pmNW 3 G 567°72%-
10/30 5:50pmWNW 3 G 767°69%-
10/30 5:40pmW 4 G 869°66%-
10/30 5:30pmWNW 5 G 870°61%-
10/30 5:20pmW 5 G 971°54%-
10/30 5:10pmW 3 G 673°49%-
10/30 5:00pmWSW 3 G 774°41%-
10/30 4:50pmWSW 3 G 775°37%-
10/30 4:40pmWSW 3 G 976°33%-
10/30 4:30pmWSW 3 G 777°29%-
10/30 4:20pmWSW 4 G 877°27%-
10/30 4:10pmWSW 4 G 977°24%-
10/30 4:00pmWSW 3 G 778°25%-
10/30 3:50pmW 4 G 879°25%-
10/30 3:40pmW 4 G 879°25%-
10/30 3:30pmW 4 G 979°25%-
10/30 3:20pmWSW 4 G 879°25%-
10/30 3:10pmWSW 5 G 1080°27%-
10/30 3:00pmWSW 4 G 980°28%-
10/30 2:50pmSW 4 G 1081°23%-
10/30 2:40pmSW 4 G 1281°21%-
10/30 2:30pmWSW 5 G 1081°20%-
10/30 2:20pmWSW 4 G 1281°20%-
10/30 2:10pmWSW 3 G 882°19%-
10/30 2:00pmSW 3 G 681°18%-
10/30 1:50pmWNW 5 G 981°17%-
10/30 1:40pmW 5 G 1081°16%-
10/30 1:30pmW 4 G 1081°17%-
10/30 1:20pmW 3 G 880°18%-
10/30 1:10pmSSW 2 G 581°17%-
10/30 1:00pmSW 3 G 680°18%-
10/30 12:50pmSSW 3 G 880°18%-
10/30 12:40pmSW 3 G 879°18%-
10/30 12:30pmSW 2 G 780°17%-
10/30 12:20pmSW 3 G 779°17%-
10/30 12:10pmS 2 G 679°20%-
10/30 12:00pmS 2 G 679°19%-
10/30 11:50amSSE 2 G 579°20%-
10/30 11:40amSSW 2 G 576°24%-
10/30 11:30amW 3 G 675°26%-
10/30 11:20amW 3 G 574°27%-
10/30 11:10amWSW 2 G 575°26%-
10/30 11:00amWSW 2 G 574°27%-
10/30 10:50amSW 2 G 674°25%-
10/30 10:40amS 2 G 775°23%-
10/30 10:30amSSW 2 G 675°21%-
10/30 10:20amWSW 3 G 576°20%-
10/30 10:10amSW 1 G 477°19%-
10/30 10:00amNE 1 G 176°21%-
10/30 9:50amSSE 1 G 275°26%-
10/30 9:40amSE 1 G 272°26%-
10/30 9:30amNNE 1 G 173°22%-
10/30 9:20amNE 1 G 174°22%-
10/30 9:10amE 1 G 171°26%-
10/30 9:00amNNE 1 G 169°28%-
10/30 8:50amNNE 1 G 166°31%-
10/30 8:40amN 1 G 162°34%-
10/30 8:30amN 1 G 260°35%-
10/30 8:20amNNE 1 G 359°35%-
10/30 8:10amNE 1 G 358°35%-
10/30 8:00amNNE 1 G 357°37%-
10/30 7:50amNNE 1 G 357°36%-
10/30 7:40amNNE 1 G 356°37%-
10/30 7:30amNNE 1 G 455°40%-
10/30 7:20amNE 1 G 155°38%-
10/30 7:10amNE 1 G 356°38%-
10/30 7:00amNNE 1 G 253°43%-
10/30 6:50amNNE 1 G 253°45%-
10/30 6:40amNNE 2 G 354°46%-
10/30 6:30amNNE 1 G 255°45%-
10/30 6:20amNNE 1 G 256°44%-
10/30 6:10amNNE 1 G 155°48%-
10/30 6:00amNE 1 G 355°52%-